Location: Sabalos
(43.2860°N, 0.1414°E)
Time: 04:34:32
(UTC+00:00)

USA 81 - Pass Details

Date: 05 July 2020
Orbit: 786 x 788 km, 85.0° (Epoch: 17 July)

Event Time Altitude Azimuth Distance (km) Brightness Sun altitude
Exits shadow 21:19:52 18° 163° (SSE) 1,827 5.4 -14.0°
Maximum altitude 21:23:37 57° 90° (E) 927 4.2 -14.4°
Drops below altitude 10° 21:28:46 10° 13° (NNE) 2,356 7.1 -15.0°
Sets 21:31:10 0° 10° (N) 3,289 8.0 -15.3°
